Showing default

CENTISPACE-1 S13, 62582

Orbit data source: Space-Track

CENTISPACE-1 S13, 62582 is a payload satellite owned by Centispace (CN) in LEO that was launched on Mon, 13 Jan 2025 UTC via a JIELONG-3 launch vehicle from the Yellow Sea Launch Area, China (YSLA). Payloads include a variety of satellites, spacecraft, and rockets equipped with specific instruments for various scientific and technological missions. These include communications satellites like Starlink; space stations such as the ISS; scientific satellites like the Hubble; Earth observation satellites from companies like Planet Labs, Umbra, and HawkEye 360; GPS; miniature CubeSats for education and research; and military/defense satellites.

Loading next visibility...
CENTISPACE-1 S13 details
Identifier
62582, 2025-007H
Orbit
LEO
Last TLE update9 hours ago
Origin
Flag of CNCentispace (CN / PRC)
ManufacturerDFH Shenzhen
MissionOperational spacecraft
Bus & MotorWK01, Unknown motor
Mass160 kg wet, 160 kg dry
Launch date (UTC)
2025-01-13 (1 month ago)
Launch vehicle
JIELONG-3
Launch site
Yellow Sea Launch Area, China (YSLA)
Object type
Payload
Rocket body
Debris
Shape & HBRUnknown
Radar Cross SectionMedium (>0.1 m² and <1 m²)

Expand to show TLE details & history

TLE from 9 hours ago
0 CENTISPACE-1 S13
1 62582U 25007H   25047.16066979  .00004782  00000-0  73437-3 0  9997
2 62582  54.9851 349.0894 0013965  24.9526 335.2146 14.75027929  5023
Epoch: 2025-02-16T03:51Z
Definitive object data (Epoch: 2025-02-16T03:51:21.869Z)
Latitude-0.00002°
Longitude144.85055°
Altitude637.228 km
Speed7.545 km/s
True Right ascension23h 16m 21s
True Declination0° 00' 00"
Sunlit
Object was in daylight at TLE epoch
Visualization TLE readout
Latitude-6.84214°
Longitude-31.88043°
Altitude656.609 km
Speed7.525 km/s
Apparent Right ascension08h 38m 27s
Apparent Declination-37° 36' 60"
Sunlit
Object is in full shadow
Visualization observer readout
Local Sidereal Time15:36:50
Azimuth246.075° WSW
Elevation-33.005°
Doppler factor1
Orbital elements
Apogee altitude654.836 km
Perigee altitude635.221 km
Semi-major axis7,023.165 km
Eccentricity0.0013965
Inclination54.9851°
RAAN349.0894°
Arg. of periapsis24.9526°
True anomaly335.14741°
Mean anomaly335.2146°
Eccentric anomaly335.18101°
Mean motion3.6876 °/min
BSTAR0.00073437
Orbital period97.62 mins
Loading maneuver chart data...
Loading historical data...
Loading historical data...
Loading historical data...
Loading historical data...
Loading historical data...
Loading historical data...
Loading historical data...

CENTISPACE-1 S13 Visibility forecast

Observer location: undefined°, undefined

Span
Click to sort rows by Start time (UTC) header in descending order
Start Az.
Max El. time (UTC)
Max El. Az.
Max El.
End time (UTC)
End Az.
8 mins2025-02-16 21:53:14.384Z197.651° SSW2025-02-16 21:57:14.384Z128.227° SE33.211°2025-02-16 22:01:14.384Z61.278° ENE
6 mins2025-02-16 23:36:14.384Z274.456° WNW2025-02-16 23:39:14.384Z341.016° N28.948°2025-02-16 23:42:14.384Z28.699° NE
7 mins2025-02-17 04:44:14.384Z333.598° NNW2025-02-17 04:47:14.384Z28.166° NE30.065°2025-02-17 04:51:14.384Z97.51° ESE
7 mins2025-02-17 06:26:14.384Z289.207° WNW2025-02-17 06:29:14.384Z220.933° SW32.643°2025-02-17 06:33:14.384Z161.819° S
|